Regional Weather Roundup
Issued by NWS

Home | Current Version | Previous Version | Text Only | Print | Product List | Glossary Off
Versions: 1 2 3 4 5 6 7 8 9 10 11 12 13 14 15 16 17 18 19 20 21 22 23 24 25 26 27 28 29 30 31 32 33 34 35 36 37 38 39 40 41 42 43 44 45 46 47 48 49 50

000
ASUS43 KLSX 021559
RWRMO

WEATHER SUMMARY FOR MISSOURI
NATIONAL WEATHER SERVICE SPRINGFIELD MO
1000 AM CST MON MAR 02 2015

NOTE: "FAIR" INDICATES FEW OR NO CLOUDS BELOW 12,000 FEET WITH NO
       SIGNIFICANT WEATHER AND/OR OBSTRUCTIONS TO VISIBILITY.
       CURRENT SKY AND/OR WEATHER CONDITIONS ARE NOT AVAILABLE FOR
       CHILLICOTHE AND FARMINGTON.

MOZ001>031-035>038-043-044-053-054-021700-
...NORTHERN AND WESTERN MISSOURI...

CITY           SKY/WX    TMP DP  RH WIND       PRES   REMARKS
KANSAS CTY INT CLOUDY    32  24  72 SE8       30.47F WCI  25
KANSAS C DTWN  MOSUNNY   35  24  64 E6        30.48F
LEE`S SUMMIT   MOSUNNY   32  23  69 E8        30.48F WCI  25
ST JOSEPH      PTSUNNY   33  24  69 SE8       30.49F WCI  26
CHILLICOTHE      N/A     30  21  69 E5        30.53S WCI  25
KIRKSVILLE     PTSUNNY   26  16  65 E7        30.52F WCI  18

$$
MOZ066>068-077>081-088>096-101>105-021700-
...SOUTHWEST MISSOURI...

CITY           SKY/WX    TMP DP  RH WIND       PRES   REMARKS
SPRINGFIELD    MOSUNNY   32  17  54 E10       30.44S WCI  24
JOPLIN         MOSUNNY   33  19  56 E12       30.44F WCI  24

$$
MOZ032>034-039>042-045>050-055>058-069>072-021700-
...CENTRAL MISSOURI...

CITY           SKY/WX    TMP DP  RH WIND       PRES   REMARKS
COLUMBIA       MOSUNNY   27  22  81 E7        30.51F WCI  19
JEFFERSON CITY MOSUNNY   21  18  88 SE3       30.54F FOG
ROLLA          MOSUNNY   26  19  74 E8        30.48F WCI  18
SEDALIA        FLURRIES  29  21  72 E6        30.51F WCI  23
OSAGE BEACH    SUNNY     30  21  69 NE9       30.50F WCI  22

$$
MOZ051-052-059>065-021700-
...EAST CENTRAL MISSOURI...

CITY           SKY/WX    TMP DP  RH WIND       PRES   REMARKS
ST LOUIS INTL  PTSUNNY   33  22  63 CALM      30.56R
SPIRIT OF STL  MOSUNNY   24  20  84 CALM      30.55S
ST CHARLES     MOSUNNY   22  19  89 CALM      30.56F FOG

$$
MOZ072>076-082>087-097>100-106>115-021700-
...SOUTH CENTRAL AND SOUTHEAST MISSOURI...

CITY           SKY/WX    TMP DP  RH WIND       PRES   REMARKS
CAPE GIRARDEAU SUNNY     32  19  58 NE12      30.53F WCI  23
FARMINGTON     SUNNY     30  18  59 E12       30.54F WCI  21
POPLAR BLUFF   SUNNY     32  19  58 NE10      30.53S WCI  24
WEST PLAINS    SUNNY     31  19  61 E9        30.46S WCI  23

$$



USA.gov is the U.S. government's official web portal to all federal, state and local government web resources and services.